Location: Fayetteville
(35.0530°N, 78.8790°W)
Time: 12:32:38
(UTC-05:00)

ISS - Visible Passes

Search period start: 07 December 2021 00:00
Search period end: 17 December 2021 00:00
Orbit: 417 x 422 km, 51.6° (Epoch: 07 December)

Date Brightness Start Highest point End Pass type
(mag) Time Alt. Az. Time Alt. Az. Time Alt. Az.
07 Dec -2.6 17:29:24 10° NNW 17:32:16 25° NE 17:35:09 10° E visible
07 Dec -1.9 19:06:05 10° WNW 19:09:04 28° SW 19:09:19 28° SW visible
08 Dec -3.0 18:18:26 10° NW 18:21:45 55° SW 18:25:04 10° SSE visible
09 Dec -3.8 17:31:01 10° NW 17:34:23 77° NE 17:37:46 10° SE visible
10 Dec -0.6 18:21:24 10° W 18:23:30 16° SW 18:25:36 10° SSW visible
11 Dec -1.3 17:33:17 10° WNW 17:36:14 28° SW 17:39:11 10° SSE visible
